This demonstration page uses our WeatherBlox Daily Observations layout. Learn more.

Left ArrowRight Arrow

Hourly Observations for May 18, 2017

Temp ( °F °C ) Dew Point ( °F °C ) Humidity (%) Winds ( mph kmh ) Pressure ( in mb ) Visibility ( mi km ) Precip ( " mm )
12:15 am 00:15 Cloudy 54 12 46 8 77 77 N 22 35 29.77 1008 10 16 0.00 0.00
12:35 am 00:35 Cloudy 54 12 46 8 77 77 N 17 28 29.77 1008 10 16 0.00 0.00
12:55 am 00:55 Cloudy 54 12 46 8 77 77 N 18 30 29.77 1008 10 16 0.00 0.00
1:15 am 01:15 Mostly Cloudy 52 11 46 8 82 82 N 15 24 29.80 1009 10 16 0.00 0.00
1:35 am 01:35 Mostly Cloudy 52 11 45 7 77 77 N 22 35 29.80 1009 10 16 0.00 0.00
1:55 am 01:55 Cloudy 52 11 45 7 77 77 N 17 28 29.80 1009 10 16 0.00 0.00
2:15 am 02:15 Cloudy 52 11 45 7 77 77 N 17 28 29.80 1009 10 16 0.00 0.00
2:35 am 02:35 Cloudy 50 10 45 7 82 82 N 22 35 29.83 1010 10 16 0.00 0.00
2:55 am 02:55 Cloudy 50 10 45 7 82 82 N 21 33 29.83 1010 10 16 0.00 0.00
3:15 am 03:15 Cloudy 50 10 45 7 82 82 N 15 24 29.83 1010 10 16 0.00 0.00
3:35 am 03:35 Cloudy 50 10 45 7 82 82 N 12 19 29.85 1011 10 16 0.00 0.00
3:55 am 03:55 Cloudy 50 10 45 7 82 82 N 15 24 29.85 1011 10 16 0.00 0.00
4:15 am 04:15 Cloudy 50 10 45 7 82 82 N 17 28 29.83 1010 10 16 0.00 0.00
4:35 am 04:35 Cloudy 50 10 45 7 82 82 N 20 31 29.85 1011 10 16 0.00 0.00
4:55 am 04:55 Cloudy 50 10 43 6 76 76 N 17 28 29.85 1011 10 16 0.00 0.00
5:15 am 05:15 Cloudy 50 10 45 7 82 82 NNE 16 26 29.85 1011 10 16 0.00 0.00
5:35 am 05:35 Cloudy 50 10 43 6 76 76 NNE 18 30 29.85 1011 10 16 0.00 0.00
5:55 am 05:55 Cloudy 48 9 43 6 82 82 NNE 21 33 29.85 1011 10 16 0.00 0.00
6:15 am 06:15 Cloudy 50 10 45 7 82 82 NNE 21 33 29.85 1011 10 16 0.00 0.00
6:35 am 06:35 Cloudy 50 10 43 6 76 76 NNE 23 37 29.85 1011 10 16 0.00 0.00
6:55 am 06:55 Cloudy 48 9 45 7 87 87 NNE 21 33 29.85 1011 10 16 0.00 0.00
7:15 am 07:15 Cloudy 48 9 45 7 87 87 NNE 21 33 29.85 1011 10 16 0.00 0.00
7:35 am 07:35 Cloudy 48 9 45 7 87 87 NNE 17 28 29.88 1012 10 16 0.00 0.00
7:55 am 07:55 Cloudy 48 9 43 6 82 82 NNE 22 35 29.88 1012 10 16 0.00 0.00
8:15 am 08:15 Cloudy 48 9 45 7 87 87 NNE 20 31 29.88 1012 10 16 0.00 0.00
8:35 am 08:35 Cloudy 48 9 45 7 87 87 NNE 18 30 29.88 1012 10 16 0.00 0.00
8:55 am 08:55 Cloudy 48 9 45 7 87 87 NNE 18 30 29.88 1012 10 16 0.00 0.00
9:15 am 09:15 Cloudy 48 9 45 7 87 87 NNE 16 26 29.91 1013 10 16 0.00 0.00
9:35 am 09:35 Cloudy 48 9 45 7 87 87 NE 18 30 29.91 1013 10 16 0.00 0.00
9:55 am 09:55 Cloudy 48 9 45 7 87 87 NE 21 33 29.91 1013 10 16 0.00 0.00
10:15 am 10:15 Cloudy 50 10 45 7 82 82 NE 21 33 29.91 1013 10 16 0.00 0.00
10:35 am 10:35 Cloudy 50 10 45 7 82 82 NE 21 33 29.91 1013 10 16 0.00 0.00
10:55 am 10:55 Cloudy 50 10 45 7 82 82 NE 20 31 29.91 1013 10 16 0.00 0.00
11:15 am 11:15 Cloudy 50 10 45 7 82 82 NE 18 30 29.91 1013 10 16 0.00 0.00
11:35 am 11:35 Cloudy 50 10 45 7 82 82 NE 17 28 29.91 1013 10 16 0.00 0.00
11:55 am 11:55 Cloudy 52 11 45 7 77 77 NE 20 31 29.94 1014 10 16 0.00 0.00
12:15 pm 12:15 Cloudy 52 11 46 8 82 82 NE 20 31 29.88 1012 10 16 0.00 0.00
12:35 pm 12:35 Cloudy 52 11 45 7 77 77 NE 22 35 29.88 1012 10 16 0.00 0.00
12:55 pm 12:55 Cloudy 52 11 46 8 82 82 ENE 20 31 29.88 1012 10 16 0.00 0.00
1:15 pm 13:15 Cloudy 52 11 46 8 82 82 NE 15 24 29.94 1014 10 16 0.00 0.00
1:35 pm 13:35 Cloudy 52 11 46 8 82 82 NE 17 28 29.94 1014 10 16 0.00 0.00
1:55 pm 13:55 Cloudy 52 11 45 7 77 77 NE 22 35 29.88 1012 10 16 0.00 0.00
2:15 pm 14:15 Cloudy 52 11 46 8 82 82 NE 18 30 29.88 1012 10 16 0.00 0.00
2:35 pm 14:35 Cloudy 52 11 46 8 82 82 ENE 22 35 29.88 1012 10 16 0.00 0.00
2:55 pm 14:55 Cloudy 52 11 46 8 82 82 ENE 20 31 29.88 1012 10 16 0.00 0.00
3:15 pm 15:15 Cloudy 52 11 46 8 82 82 ENE 21 33 29.94 1014 10 16 0.00 0.00
3:35 pm 15:35 Cloudy 52 11 46 8 82 82 ENE 21 33 29.94 1014 10 16 0.00 0.00
3:55 pm 15:55 Cloudy 52 11 46 8 82 82 NE 20 31 29.94 1014 10 16 0.00 0.00
4:15 pm 16:15 Cloudy 52 11 46 8 82 82 ENE 22 35 29.88 1012 10 16 0.00 0.00
4:35 pm 16:35 Cloudy 54 12 46 8 77 77 NE 24 39 29.85 1011 10 16 0.00 0.00
4:55 pm 16:55 Cloudy 54 12 46 8 77 77 NE 21 33 29.85 1011 10 16 0.00 0.00
5:15 pm 17:15 Cloudy 54 12 46 8 77 77 NNE 28 44 29.83 1010 10 16 0.00 0.00
5:35 pm 17:35 Cloudy 54 12 46 8 77 77 NNE 21 33 29.80 1009 10 16 0.00 0.00
5:55 pm 17:55 Cloudy 54 12 46 8 77 77 NE 18 30 29.85 1011 10 16 0.00 0.00
6:15 pm 18:15 Cloudy 54 12 46 8 77 77 NE 15 24 29.85 1011 10 16 0.00 0.00
6:35 pm 18:35 Cloudy 54 12 46 8 77 77 NE 18 30 29.85 1011 10 16 0.00 0.00
6:55 pm 18:55 Cloudy 54 12 46 8 77 77 NE 20 31 29.88 1012 10 16 0.00 0.00
7:15 pm 19:15 Cloudy 54 12 46 8 77 77 NE 20 31 29.88 1012 10 16 0.00 0.00
7:35 pm 19:35 Cloudy with Nearby Thunderstorms 52 11 48 9 88 88 NE 21 33 29.88 1012 3 5 0.00 0.00
7:55 pm 19:55 Cloudy with Thunderstorms 52 11 48 9 88 88 NNE 16 26 29.94 1014 2 3 0.00 0.00
8:15 pm 20:15 Cloudy with Nearby Thunderstorms 52 11 48 9 88 88 NE 20 31 29.94 1014 4 6 0.10 2.54
8:35 pm 20:35 Cloudy with Thunderstorms 52 11 48 9 88 88 ENE 23 37 29.94 1014 5 8 0.16 4.06
8:55 pm 20:55 Cloudy 52 11 48 9 88 88 NE 16 26 29.94 1014 8 13 0.21 5.33
9:15 pm 21:15 Cloudy 52 11 48 9 88 88 NE 18 30 29.97 1015 8 13 0.08 2.03
9:35 pm 21:35 Cloudy 52 11 48 9 88 88 NE 16 26 29.94 1014 8 13 0.15 3.81
9:55 pm 21:55 Cloudy 52 11 48 9 88 88 ENE 16 26 29.94 1014 8 13 0.18 4.57
10:15 pm 22:15 Cloudy 52 11 48 9 88 88 NE 18 30 29.94 1014 10 16 0.01 0.25
10:35 pm 22:35 Cloudy 52 11 48 9 88 88 NE 18 30 29.88 1012 10 16 0.01 0.25
10:55 pm 22:55 Cloudy 52 11 48 9 88 88 NE 21 33 29.88 1012 10 16 0.01 0.25
11:15 pm 23:15 Cloudy 52 11 48 9 88 88 NE 24 39 29.88 1012 10 16 0.00 0.00
11:35 pm 23:35 Cloudy 52 11 48 9 88 88 NE 18 30 29.88 1012 10 16 0.00 0.00
11:55 pm 23:55 Cloudy 52 11 48 9 88 88 ENE 22 35 29.94 1014 10 16 0.00 0.00

Powered by AerisWeather